Location: Kaarina
(60.4167°N, 22.4167°E)
Time: 21:26:09
(UTC+03:00)

Okean 2 - Pass Details

Date: 24 August 2019
Orbit: 560 x 577 km, 82.5° (Epoch: 15 October)

Event Time Altitude Azimuth Distance (km) Brightness Sun altitude
Rises 23:11:48 0° 343° (NNW) 2,784 8.4 -13.3°
Reaches altitude 10° 23:14:02 10° 338° (NNW) 1,879 7.4 -13.5°
Maximum altitude 23:18:01 47° 264° (W) 757 4.2 -13.8°
Enters shadow 23:21:26 13° 193° (SSW) 1,659 5.4 -14.0°
